Tracking 29892 objects as of 21-Nov-2024
HD Live streaming from Space Station
objects crossing your sky now

STARLINK-1376

Track STARLINK-1376 now!
10-day predictions
STARLINK-1376 is classified as:


NORAD ID: 45570
Int'l Code: 2020-025AR
Perigee: 553.6 km
Apogee: 554.9 km
Inclination: 53.1 °
Period: 95.6 minutes
Semi major axis: 6925 km
RCS: Unknown
Launch date: April 22, 2020
Source: United States (US)
Launch site: AIR FORCE EASTERN TEST RANGE (AFETR)
Your satellite tracking list
Your tracking list is empty




NASA's NSSDC Master Catalog

Two Line Element Set (TLE):
1 45570U 20025AR  24325.63969102  .00004903  00000-0  34756-3 0  9996
2 45570  53.0521  54.7085 0000912 119.8505 240.2574 15.06428909253917
Source of the keplerian elements: AFSPC